Regional Weather Roundup
Issued by NWS

Home | Current Version | Previous Version | Graphics & Text | Print | Product List | Glossary On
Versions: 1 2 3 4 5 6 7 8 9 10 11 12 13 14 15 16 17 18 19 20 21 22 23 24 25 26 27 28 29 30 31 32 33 34 35 36 37 38 39 40 41 42 43 44 45 46 47 48 49 50
000
ASUS43 KLMK 020002
RWRKY
KENTUCKY REGIONAL WEATHER ROUNDUP
NATIONAL WEATHER SERVICE LOUISVILLE KY
700 PM EST SUN FEB 01 2015

NOTE "FAIR" INDICATES FEW OR NO CLOUDS BELOW 12,000 FEET
WITH NO SIGNIFICANT WEATHER AND/OR OBSTRUCTIONS TO VISIBILITY.

KYZ001>023-026-027-061>063-070>075-020100-
WESTERN AND SOUTH CENTRAL KENTUCKY

CITY           SKY/WX    TMP DP  RH WIND       PRES   REMARKS
PADUCAH        CLOUDY    48  45  89 W8        29.67R
HENDERSON      CLOUDY    46  43  87 W8        29.64R
OWENSBORO      CLOUDY    48  46  93 W15       29.63R
HOPKINSVILLE   LGT RAIN  52  50  93 W16G23    29.65R
BOWLING GREEN  LGT RAIN  53  50  89 SW7       29.63F
GLASGOW        NOT AVBL
$$

KYZ024-025-028>034-038-045-046-053-020100-
NORTH CENTRAL KENTUCKY

CITY           SKY/WX    TMP DP  RH WIND       PRES   REMARKS
LOUISVILLE/SDF LGT RAIN  50  47  89 S8        29.58F
LOUISVILLE/LOU LGT RAIN  48  46  93 S7        29.59F
FORT KNOX      LGT RAIN  49  48  95 S9        29.58S
$$

KYZ035>037-039>044-047>052-055>060-089>105-020100-
NORTHEAST KENTUCKY

CITY           SKY/WX    TMP DP  RH WIND       PRES   REMARKS
LEXINGTON      RAIN      47  45  93 S14       29.61F FOG
COVINGTON      LGT RAIN  45  43  93 S10       29.57F
FRANKFORT      LGT RAIN  48  46  93 SW14      29.59F FOG
$$

KYZ054-064>069-076>088-106>120-020100-
SOUTHEAST KENTUCKY

CITY           SKY/WX    TMP DP  RH WIND       PRES   REMARKS
JACKSON        RAIN      46  44  93 VRB7      29.67F FOG
LONDON         RAIN      49  45  86 S13G18    29.67F FOG
SOMERSET       NOT AVBL
MIDDLESBORO    NOT AVBL
MONTICELLO     CLOUDY    52  49  89 S15G22    29.68F FOG
$$



USA.gov is the U.S. government's official web portal to all federal, state and local government web resources and services.